Flag for Colombia Weather past 2 weeks in Cartagena, Colombia

Now
82 °F

Passing clouds.


Feels Like: 92 °F
Forecast: 81 / 90 °F
Wind: 8 mph from North

Location: Cartagena / Rafael Nunez

Current Time: Jul 29, 2015 at 11:55:24 PM

Latest Report: Jul 29, 2015 at 11:00 PM


Visibility: N/A

Pressure: 29.84 "Hg

Humidity: 89%

Dew point: 79 °F

Location of CartagenaLocation

Historic Weather in Cartagena — Graph

°F

Cartagena temperature yesterday

Maximum temperature yesterday: 90 °F (at 10:00 AM)
Minimum temperature yesterday: 81 °F (at 1:00 AM)
Average temperature yesterday: 84 °F

Past Weeks' High & Low Weather Summary

 TemperatureHumidityPressure
High93 °F (Jul 27, 11:00 AM)100% (Jul 16, 1:00 AM)29.92 "Hg (Jul 16, 1:00 AM)
Low36 °F (Jul 19, 5:00 AM)59% (Jul 26, 4:00 PM)29.67 "Hg (Jul 26, 4:00 PM)
Average84 °F84%29.81 "Hg
* Reported Jul 14 10:00 PM — Jul 29 10:00 PM, Cartagena, Weather by CustomWeather, © 2015

Note: Actual official high and low records may vary slightly from our data, if they occured in-between our weather recording intervals... More about our weather records

Advertising

Cartagena weather history for previous 24 hours

 ConditionsComfort  
Time TempWeatherWind HumidityBarometerVisibility
10:00 PM
Wed, Jul 29
82 °FPassing clouds.8 mph89%29.82 "HgN/A
9:00 PM82 °FPassing clouds.18 mph89%29.80 "HgN/A
8:00 PM82 °FPassing clouds.10 mph89%29.82 "HgN/A
7:00 PM79 °FWarm.N/A94%29.86 "Hg16 mi
6:00 PM84 °FBroken clouds.10 mph84%29.76 "HgN/A
5:00 PM86 °FBroken clouds.15 mph75%29.75 "HgN/A
4:00 PM88 °FScattered showers. Scattered clouds.9 mph75%29.78 "HgN/A
3:00 PM88 °FScattered showers. Scattered clouds.9 mph75%29.77 "HgN/A
2:00 PM86 °FScattered showers. Broken clouds.8 mph79%29.79 "HgN/A
1:00 PM88 °FScattered showers. Broken clouds.14 mph84%29.80 "HgN/A
12:00 PM90 °FPartly sunny.14 mph79%29.80 "HgN/A
11:00 AM91 °FPartly sunny.10 mph75%29.81 "HgN/A
10:00 AM91 °FPartly sunny.7 mph71%29.81 "HgN/A
9:00 AM88 °FScattered clouds.8 mph79%29.81 "HgN/A
8:00 AM84 °FScattered clouds.10 mph89%29.80 "Hg6 mi
7:00 AM82 °FScattered clouds.8 mph89%29.78 "Hg6 mi
6:00 AM81 °FScattered clouds.5 mph94%29.76 "HgN/A
5:00 AM79 °FClear.5 mph94%29.75 "Hg10 mi
4:00 AM81 °FClear.5 mph89%29.74 "Hg10 mi
3:00 AM81 °FClear.No wind84%29.74 "Hg10 mi
2:00 AM81 °FClear.5 mph84%29.75 "Hg10 mi
1:00 AM81 °FClear.5 mph84%29.76 "Hg10 mi
12:00 AM81 °FClear.5 mph84%29.77 "Hg10 mi
11:00 PM
Tue, Jul 28
81 °FClear.5 mph89%29.78 "Hg10 mi
Weather by CustomWeather, © 2015

See weather overviewHow to use our weather pages